Location: *
(51.1248°S, 108.4023°W)
Time: 05:25:46
(UTC+00:00)

Cosmos 1975 - Pass Details

Date: 15 June 2021
Orbit: 541 x 560 km, 82.5° (Epoch: 31 July)

Event Time Altitude Azimuth Distance (km) Brightness Sun altitude
Exits shadow 13:22:38 - 186° (S) 2,339 5.8 -16.7°
Reaches altitude 10° 13:23:49 10° 182° (S) 1,864 5.3 -16.5°
Maximum altitude 13:27:51 54° 104° (ESE) 684 3.6 -15.9°
Drops below altitude 10° 13:31:48 10° 26° (NNE) 1,829 6.1 -15.3°
Sets 13:33:59 0° 21° (NNE) 2,712 7.0 -15.0°
